Starlink 31253

operational
NORAD ID: 58830 Int'l Des: 2024-017 Owner: SPXS Country: US Constellation: starlink
LEOCIRCULAR

Starlink 31253について

説明を読み込み中...

リアルタイム位置

3D地球を読み込み中...

次回通過

高度履歴

Altitude vs Time

uPlot chart will show altitude changes over time

軌道要素

1 58830U 24017E 25351.94647990 -.00006361 00000-0 -20279-3 0 9993
2 58830 53.1597 223.8173 0001021 86.1123 273.9994 15.30205014107548
Epoch: Dec 17, 2025 • Age: 16 hours

現在のステータス

高度 478.7 km
速度 7.63 km/s
衛星直下点 42.35°N, 46.55°E
打ち上げ日 Jan 24, 2024
運用期間 1.9 years
タイプ internet

技術仕様

分類 Payload
質量 730.00 kg
乾燥質量 700.00 kg
総質量 730.00 kg
長さ 0.30 m
直径 4.10 m
スパン 29.00 m
形状 Box + pan
製造者 SPXS
バスタイプ Starlink V2M
フェーズステータス In Orbit
所有者/国 SPXS/US

大規模コンステレーション

Loading constellations...